Location: Stara Lesna
(49.1528°N, 20.2911°E)
Time: 19:11:52
(UTC+02:00)

Cosmos 468 Rocket - Pass Details

Date: 13 July 2020
Orbit: 743 x 780 km, 74.0° (Epoch: 11 August)

Event Time Altitude Azimuth Distance (km) Brightness Sun altitude
Rises 03:30:42 0° 336° (NNW) 3,265 7.7 -10.0°
Reaches altitude 10° 03:33:05 10° 337° (NNW) 2,337 6.9 -9.8°
Maximum altitude 03:38:25 86° 67° (ENE) 789 4.1 -9.2°
Drops below altitude 10° 03:43:44 10° 157° (SSE) 2,329 6.3 -8.7°
Sets 03:46:07 0° 157° (SSE) 3,253 7.0 -8.4°
